Kelso, MO

7:32 PM CDT on September 30, 2016 (GMT -0500)
Cape Girardeau Regional

Weather History for KCGI - March, 2013

Change the Weather History Date:

Monday, March 25, 2013

  Actual Average Record
Temperature  
Mean Temperature 36 °F 50 °F  
Max Temperature 40 °F 62 °F 83 °F (2007)
Min Temperature 31 °F 38 °F 20 °F (1966)
Degree Days  
Heating Degree Days 29 15  
Month to date heating degree days 604 474  
Since 1 July heating degree days 3843 3971  
Cooling Degree Days 0 0  
Month to date cooling degree days 0 0  
Year to date cooling degree days 0 0  
Moisture  
Dew Point 27 °F    
Average Humidity 74    
Maximum Humidity 89    
Minimum Humidity 59    
Precipitation  
Precipitation 0.01 in 0.15 in 1.94 in (2002)
Month to date precipitation 1.81 3.46  
Year to date precipitation 8.43 10.34  
Sea Level Pressure  
Sea Level Pressure 30.02 in    
Wind  
Wind Speed 15 mph (WNW)    
Max Wind Speed 24 mph    
Max Gust Speed 30 mph    
Visibility 9 miles    
Events Snow    
T = Trace of Precipitation, MM = Missing Value Source: NWS Daily Summary

Daily Weather History Graph

Daily Weather History Graph

Search for Another Location

Airport or City:

Trip Planner

Search our weather history database for the weather conditions in past years. The results will help you decide how hot, cold, wet, or windy it might be!

Date:

Astronomy

Mar. 25, 2013 Rise Set
Actual Time 6:53 AM CDT 7:14 PM CDT
Civil Twilight 6:27 AM CDT 7:40 PM CDT
Nautical Twilight 5:57 AM CDT 8:11 PM CDT
Astronomical Twilight 5:26 AM CDT 8:42 PM CDT
Moon 5:47 PM CDT (3/25) 5:35 AM CDT (3/25)
Length of Visible Light 13h 13m
Length of Day
12h 20m
Waxing Gibbous, 96% of the Moon is Illuminated
Mar 25
Waxing Gibbous
Mar 27
Full
Apr 2
Last Quarter
Apr 10
New
Apr 18
First Quarter

Hourly Weather History & Observations

Time (CDT) Temp. Windchill Dew Point Humidity Pressure Visibility Wind Dir Wind Speed Gust Speed Precip Events Conditions
12:53 AM 34.0 °F 22.4 °F 27.0 °F 75% 29.85 in 10.0 mi WNW 20.7 mph 28.8 mph N/A   Overcast
1:53 AM 34.0 °F 23.0 °F 27.0 °F 75% 29.86 in 10.0 mi WNW 18.4 mph - N/A   Overcast
2:16 AM 33.8 °F 22.5 °F 26.6 °F 75% 29.85 in 10.0 mi WNW 19.6 mph 27.6 mph N/A   Overcast
2:53 AM 33.1 °F 22.2 °F 27.0 °F 78% 29.86 in 10.0 mi WNW 17.3 mph 24.2 mph N/A   Overcast
3:13 AM 33.8 °F 22.5 °F 26.6 °F 75% 29.85 in 10.0 mi WNW 19.6 mph 26.5 mph N/A   Overcast
3:53 AM 33.1 °F 21.9 °F 27.0 °F 78% 29.87 in 10.0 mi West 18.4 mph - N/A   Overcast
4:53 AM 33.1 °F 22.6 °F 25.0 °F 72% 29.88 in 10.0 mi WNW 16.1 mph - N/A   Overcast
5:06 AM 33.8 °F 22.8 °F 24.8 °F 70% 29.87 in 10.0 mi WNW 18.4 mph 26.5 mph N/A   Overcast
5:53 AM 33.8 °F 23.2 °F 24.8 °F 70% 29.88 in 10.0 mi WNW 17.3 mph 24.2 mph N/A   Overcast
6:01 AM 33.8 °F 23.5 °F 24.8 °F 70% 29.88 in 10.0 mi WNW 16.1 mph 28.8 mph N/A   Overcast
6:34 AM 32.0 °F 20.5 °F 24.8 °F 75% 29.90 in 10.0 mi WNW 18.4 mph - N/A   Overcast
6:53 AM 32.0 °F 21.6 °F 24.1 °F 73% 29.91 in 10.0 mi WNW 15.0 mph 23.0 mph N/A   Overcast
7:53 AM 32.0 °F 20.5 °F 23.0 °F 69% 29.94 in 10.0 mi WNW 18.4 mph 27.6 mph N/A   Overcast
8:53 AM 33.1 °F 21.5 °F 24.1 °F 70% 29.96 in 10.0 mi WNW 19.6 mph - N/A   Overcast
9:53 AM 34.0 °F 23.4 °F 24.1 °F 67% 29.99 in 10.0 mi WNW 17.3 mph 23.0 mph N/A   Overcast
10:53 AM 34.0 °F 23.4 °F 24.1 °F 67% 30.01 in 10.0 mi WNW 17.3 mph - N/A   Overcast
11:53 AM 37.0 °F 27.4 °F 26.1 °F 65% 30.02 in 10.0 mi WNW 17.3 mph 24.2 mph N/A   Overcast
12:00 PM 35.6 °F 25.9 °F 24.8 °F 65% 30.02 in 10.0 mi NW 16.1 mph 25.3 mph N/A   Overcast
12:11 PM 35.6 °F 25.5 °F 24.8 °F 65% 30.02 in 10.0 mi NW 17.3 mph - N/A   Overcast
12:23 PM 35.6 °F 25.2 °F 24.8 °F 65% 30.02 in 10.0 mi WNW 18.4 mph 26.5 mph N/A   Overcast
12:53 PM 37.0 °F 27.0 °F 25.0 °F 62% 30.03 in 10.0 mi WNW 18.4 mph 26.5 mph N/A   Overcast
1:53 PM 37.9 °F 28.9 °F 25.0 °F 60% 30.04 in 10.0 mi NW 16.1 mph - N/A   Overcast
2:53 PM 37.9 °F 29.6 °F 25.0 °F 60% 30.06 in 10.0 mi NW 13.8 mph 25.3 mph N/A   Overcast
3:53 PM 37.9 °F 27.3 °F 26.1 °F 62% 30.07 in 10.0 mi WNW 21.9 mph 25.3 mph N/A   Overcast
4:53 PM 39.0 °F 30.6 °F 27.0 °F 62% 30.08 in 10.0 mi WNW 15.0 mph - N/A   Overcast
5:53 PM 37.9 °F 29.2 °F 28.0 °F 68% 30.09 in 10.0 mi West 15.0 mph - N/A   Overcast
6:53 PM 36.0 °F 28.5 °F 28.9 °F 76% 30.12 in 10.0 mi WNW 10.4 mph - 0.00 in   Overcast
7:11 PM 35.6 °F 25.9 °F 28.4 °F 75% 30.12 in 10.0 mi West 16.1 mph - N/A   Overcast
7:41 PM 35.6 °F 27.5 °F 30.2 °F 81% 30.14 in 8.0 mi WNW 11.5 mph - 0.00 in Snow Light Snow
7:50 PM 33.8 °F 25.8 °F 30.2 °F 87% 30.14 in 2.5 mi NW 10.4 mph - 0.00 in Snow Light Snow
7:53 PM 34.0 °F 25.0 °F 30.0 °F 85% 30.15 in 1.8 mi NNW 12.7 mph - 0.00 in Snow Light Snow
8:19 PM 33.8 °F 24.8 °F 30.2 °F 87% 30.15 in 2.5 mi NW 12.7 mph - 0.00 in Snow Light Snow
8:24 PM 33.8 °F 24.8 °F 30.2 °F 87% 30.15 in 3.0 mi WNW 12.7 mph - 0.00 in Snow Light Snow
8:53 PM 33.1 °F 24.9 °F 30.9 °F 92% 30.17 in 4.0 mi WNW 10.4 mph - 0.00 in Snow Light Snow
9:10 PM 33.8 °F 25.8 °F 30.2 °F 87% 30.17 in 3.0 mi WNW 10.4 mph - 0.01 in Snow Light Snow
9:43 PM 33.8 °F 24.3 °F 28.4 °F 81% 30.18 in 10.0 mi NW 13.8 mph 20.7 mph 0.01 in   Overcast
9:53 PM 33.1 °F 23.4 °F 28.0 °F 82% 30.19 in 9.0 mi NW 13.8 mph 21.9 mph 0.01 in   Overcast
10:53 PM 32.0 °F 24.8 °F 28.9 °F 88% 30.20 in 10.0 mi WNW 8.1 mph - N/A   Overcast
11:53 PM 32.0 °F 23.6 °F 27.0 °F 82% 30.21 in 9.0 mi NW 10.4 mph - N/A   Overcast